This demonstration page uses our WeatherBlox Daily Observations layout. Learn more.

Left ArrowRight Arrow

34.02893, -84.19858

Hourly Observations for January 8, 2018

Temp ( °F °C ) Dew Point ( °F °C ) Humidity (%) Winds ( mph kmh ) Pressure ( in mb ) Visibility ( mi km ) Precip ( " mm )
12:53 am 00:53 Clear 29 -1.7 4 -15.6 34 34 VRB 3 6 30.40 1030 10 16 0.00 0.00
1:46 am 01:46 Mostly Cloudy 29 -1.7 5 -15 36 36 VRB 5 7 30.39 1029 10 16 0.00 0.00
1:53 am 01:53 Mostly Cloudy 29 -1.7 5 -15 36 36 ENE 5 7 30.38 1029 10 16 0.00 0.00
2:53 am 02:53 Cloudy 30 -1.1 5 -15 34 34 VRB 5 7 30.39 1029 10 16 0.00 0.00
3:53 am 03:53 Cloudy 30 -1.1 5 -15 34 34 ENE 3 6 30.38 1029 10 16 0.00 0.00
4:53 am 04:53 Cloudy 30 -1.1 5 -15 34 34 VRB 5 7 30.35 1028 10 16 0.00 0.00
5:53 am 05:53 Mostly Cloudy 30 -1.1 6 -14.4 36 36 VRB 6 9 30.35 1028 10 16 0.00 0.00
6:05 am 06:05 Partly Cloudy 30 -1.1 7 -13.9 38 38 VRB 5 7 30.36 1028 10 16 0.00 0.00
6:53 am 06:53 Partly Cloudy 30 -1.1 7 -13.9 38 38 VRB 3 6 30.37 1029 10 16 0.00 0.00
7:53 am 07:53 Mostly Cloudy 30 -1.1 7 -13.9 38 38 VRB 3 6 30.36 1028 10 16 0.00 0.00
8:53 am 08:53 Mostly Cloudy 31 -0.6 8 -13.3 38 38 VRB 3 6 30.35 1028 10 16 0.00 0.00
9:53 am 09:53 Cloudy 33 0.6 10 -12.2 38 38 VRB 3 6 30.35 1028 10 16 0.00 0.00
10:53 am 10:53 Cloudy 35 1.7 15 -9.4 44 44 E 3 6 30.32 1027 10 16 0.00 0.00
11:53 am 11:53 Cloudy 35 1.7 23 -5 61 61 VRB 5 7 30.29 1026 10 16 0.00 0.03
12:53 pm 12:53 Cloudy 36 2.2 25 -3.9 64 64 E 5 7 30.25 1024 10 16 0.00 0.00
1:53 pm 13:53 Cloudy with Light Rain 38 3.3 28 -2.2 68 68 ENE 5 7 30.23 1024 10 16 0.00 0.03
2:53 pm 14:53 Cloudy 38 3.3 28 -2.2 68 68 ENE 6 9 30.22 1024 10 16 0.01 0.25
3:53 pm 15:53 Cloudy with Light Rain 37 2.8 31 -0.6 79 79 VRB 5 7 30.23 1024 7 11 0.00 0.03
4:53 pm 16:53 Cloudy with Light Rain 36 2.2 33 0.6 89 89 VRB 5 7 30.25 1024 5 8 0.02 0.51
5:23 pm 17:23 Cloudy with Light Rain 36 2.2 33 0.6 89 89 VRB 3 6 30.27 1025 4 6 0.02 0.51
5:33 pm 17:33 Cloudy with Light Rain 36 2.2 33 0.6 89 89 VRB 3 6 30.27 1025 3 5 0.03 0.76
5:53 pm 17:53 Cloudy with Light Rain 36 2.2 33 0.6 89 89 ENE 3 6 30.26 1025 5 8 0.04 1.02
6:53 pm 18:53 Cloudy with Light Rain 36 2.2 34 1.1 93 93 VRB 5 7 30.25 1025 5 8 0.03 0.76
7:53 pm 19:53 Cloudy with Mist and Fog 37 2.8 35 1.7 93 93 VRB 5 7 30.22 1024 4 6 0.00 0.03
8:53 pm 20:53 Cloudy with Mist and Fog 37 2.8 36 2.2 96 96 VRB 3 6 30.24 1024 5 8 0.00 0.00
9:53 pm 21:53 Mostly Clear with Mist and Fog 37 2.8 36 2.2 96 96 Calm 30.24 1024 5 8 0.00 0.00
10:53 pm 22:53 Mostly Cloudy with Mist and Fog 37 2.8 36 2.2 96 96 Calm 30.26 1025 4 6 0.00 0.00
11:53 pm 23:53 Cloudy with Mist and Fog 38 3.3 37 2.8 97 97 Calm 30.26 1025 5 8 0.00 0.00

Powered by AerisWeather